Location: Esp�n
(42.4593°N, 0.2047°W)
Time: 22:10:14
(UTC+00:00)

STARLINK-61 - Pass Details

Date: 07 June 2020
Orbit: 505 x 517 km, 53.0° (Epoch: 05 July)

Event Time Altitude Azimuth Distance (km) Brightness Sun altitude
Exits shadow 01:37:37 47° 129° (SE) 677 3.9 -21.0°
Drops below altitude 10° 01:41:15 10° 63° (ENE) 1,731 6.9 -20.7°
Sets 01:43:30 0° 57° (ENE) 2,623 8.0 -20.5°
